Hourly Data Report for October 12, 2015

All times are specified in Local Standard Time (LST). Add 1 hour to adjust for Daylight Saving Time where and when it is observed.

KUGLUKTUK A
NUNAVUT

67°49'00.000" N
115°08'38.000" W
22.60 m
2300903
71938
YCO

Download Data

Hourly Data (October 2015)
Hourly Data Report for October 12, 2015
Temp Definition
°C
Dew Point Temp Definition
°C
Rel Hum Definition
%
Wind Dir Definition
10's deg

Wind Spd Definition
km/h
Visibility Definition
km
Stn Press Definition
kPa
Hmdx Definition


Wind Chill Definition


Weather Definition


TIME
00:00 Legend Double Dagger -7.7 -10.9 78 23 7 24.1 101.20   -11 Snow
01:00 Legend Double Dagger -7.8 -11.3 76 21 9 24.1 101.17   -12 Snow
02:00 Legend Double Dagger -8.1 -11.0 80 20 13 24.1 101.19   -14 Snow
03:00 Legend Double Dagger -8.6 -11.3 81 20 19 24.1 101.19   -16 Snow
04:00 Legend Double Dagger -9.1 -11.5 83 21 18 24.1 101.17   -16 Snow
05:00 Legend Double Dagger -9.3 -11.4 85 21 19 24.1 101.17   -17 Snow
06:00 Legend Double Dagger -9.9 -12.4 82 20 19 24.1 101.17   -18 Snow
07:00 Legend Double Dagger -11.4 -13.7 83 19 29 24.1 101.14   -21 Snow
08:00 Legend Double Dagger -12.5 -15.0 82 19 26 24.1 101.08   -22 Mostly Cloudy
09:00 Legend Double Dagger -12.6 -15.5 79 16 16 24.1 101.04   -20 LegendNANA
10:00 Legend Double Dagger -11.6 -15.5 73 16 22 24.1 100.98   -20 LegendNANA
11:00 Legend Double Dagger -10.8 -15.3 70 18 17 24.1 100.95   -18 Mainly Clear
12:00 Legend Double Dagger -9.9 -14.6 69 16 9 24.1 100.91   -15 LegendNANA
13:00 Legend Double Dagger -8.3 -13.2 68 15 13 24.1 100.85   -14 LegendNANA
14:00 Legend Double Dagger -7.4 -12.2 69 15 17 24.1 100.81   -14 Mostly Cloudy
15:00 Legend Double Dagger -9.0 -13.7 69 14 20 24.1 100.76   -17 LegendNANA
16:00 Legend Double Dagger -9.1 -13.1 73 14 13 24.1 100.70   -15 LegendNANA
17:00 Legend Double Dagger -9.8 -13.0 78 13 10 24.1 100.66   -15 Clear
18:00 Legend Double Dagger -9.9 -12.4 82 11 13 24.1 100.58   -16 LegendNANA
19:00 Legend Double Dagger -9.9 -12.7 80 12 18 24.1 100.53   -17 LegendNANA
20:00 Legend Double Dagger -10.5 -13.2 81 11 17 24.1 100.47   -18 Mainly Clear
21:00 Legend Double Dagger -9.3 -12.1 80 11 21 24.1 100.40   -17 LegendNANA
22:00 Legend Double Dagger -8.6 -11.6 79 11 15 24.1 100.35   -15 LegendNANA
23:00 Legend Double Dagger -8.0 -11.2 78 11 19 24.1 100.31   -15 Mostly Cloudy

Notes on Data Quality.

Legend

  • E = Estimated
  • M = Missing
  • NA = Not Available
  • ‡ = Partner data that is not subject to review by the National Climate Archives
Date modified: